STARLINK-1277, 45369

Orbit data source: Space-Track

STARLINK-1277, 45369 is a payload satellite owned by SpaceX/Seattle (US) in LEO that was launched on Wed, 18 Mar 2020 UTC via an FALCON 9 launch vehicle from the Air Force Eastern Test Range (AFETR). Payload-class satellites include a variety of spacecraft equipped with specific instruments for various scientific and technological missions. These include communications satellites like Starlink; space stations such as the ISS; scientific satellites like the Hubble; Earth observation satellites from companies like Planet Labs, Umbra, and HawkEye 360; GPS; miniature CubeSats for education and research; and military/defense satellites.

Loading next visibility...
Identifier
45369, 2020-019K
Orbit
LEO
Country
Flag of USUS
Related business
Manufacturer
SpaceX/Seattle
Mission
Operational Commercial Communications
Bus & Motor
STARLINK, Unknown motor
Mass
260 kg wet, ~248 kg dry
Launch date (UTC)
2020-03-18 (6 years ago)
Launch vehicle
FALCON 9
Launch site
Air Force Eastern Test Range (AFETR)
Object type
Payload
Rocket body
Debris
Shape & HBR
Box + 1 Pan, 10.1 m
Radar Cross Section
13.562 m², Large (>1 m²)

Expand to show TLE details & history
Last TLE update: 1 day ago

TLE from 1 day ago
0 STARLINK-1277
1 45369U 20019K   25312.52792894  .00012344  00000-0  84590-3 0  9991
2 45369  53.0543 351.1616 0001654  91.6498 268.4680 15.06411331311469
Epoch: 2025-11-08T12:40Z
TLE epoch observation values (Epoch: 2025-11-08T12:40:13.060Z)
Latitude
-0.00005°
Longitude
113.15089°
Altitude
548.087 km
Speed
7.589 km/s
True Right ascension
23h 24m 38s
True Declination
0° 00' 00"
Sunlit
Object was in full shadow at epoch
Visualization orbit readout
Latitude
Unknown
Longitude
Unknown
Altitude
Unknown
Speed
Unknown
Apparent Right ascension
Unknown
Apparent Declination
Unknown
Sunlit
N/A
Visualization observer readout
Local Sidereal Time
19:06:02
Azimuth
Unknown
Elevation
Unknown
Doppler factor
Unknown
Orbital elements
Apogee altitude
548.593 km
Perigee altitude
546.302 km
Semi-major axis
6,925.585 km
Eccentricity
0.00017
Inclination
53.0543°
RAAN
351.1616°
Arg. of periapsis
91.6498°
True anomaly
268.44905°
Mean anomaly
268.468°
Eccentric anomaly
268.45853°
Mean motion
3.76581 °/min
Orbital period
95.6 mins
BSTAR
0.0008459
Loading maneuver chart data...
Computing Atmospheric mass density...

Documentation

Showing up to 5 results
|